Location: Champs
(48.8539°N, 2.6040°E)
Time: 06:15:34
(UTC+00:00)

COSMOS 2428 - Pass Details

Date: 26 October 2021
Orbit: 844 x 857 km, 70.9° (Epoch: 04 December)

Event Time Altitude Azimuth Distance (km) Brightness Sun altitude
Exits shadow 04:05:12 - 336° (NNW) 2,760 5.2 -23.9°
Reaches altitude 10° 04:05:56 10° 338° (NNW) 2,487 5.0 -23.7°
Maximum altitude 04:11:34 57° 57° (ENE) 1,005 3.3 -22.8°
Drops below altitude 10° 04:17:10 10° 135° (SE) 2,481 5.6 -21.9°
Sets 04:19:40 0° 140° (SE) 3,415 6.3 -21.5°
